Regional Weather Roundup
Issued by NWS

Home | Current Version | Previous Version | Graphics & Text | Print | Product List | Glossary On
Versions: 1 2 3 4 5 6 7 8 9 10 11 12 13 14 15 16 17 18 19 20 21 22 23 24 25 26 27 28 29 30 31 32 33 34 35 36 37 38
000
ASUS43 KDMX 222207
RWRIA

WEATHER ROUNDUP FOR IOWA
NATIONAL WEATHER SERVICE DES MOINES IA
500 PM CDT WED OCT 22 2014

NOTE: "FAIR" INDICATES FEW OR NO CLOUDS BELOW 12,000 FEET WITH NO
SIGNIFICANT WEATHER AND/OR OBSTRUCTIONS TO VISIBILITY.

* - THESE STATIONS ARE NOT NWS STATIONS...THUS NOT UNDER NWS
QUALITY CONTROL.  THEY ALSO DO NOT REPORT WEATHER SUCH
AS PRECIPITATION OR FOG.

IAZ001>003-012>014-020>022-031>034-043>046-222300-
   NORTHWEST IOWA

CITY           SKY/WX    TMP DP  RH WIND       PRES   REMARKS
CARROLL *      SUNNY     68  48  49 SE15G22   30.04S
CHEROKEE *     PTSUNNY   72  52  49 S18G25    29.97F
DENISON *      SUNNY     70  52  52 S12G20    29.99S
LE MARS *      PTSUNNY   73  54  49 S15G22    29.94S
ORANGE CITY *  SUNNY     72  50  46 S10G22    29.95R
SHELDON *      MOSUNNY   72  52  49 S18G32    29.94R
SIOUX CITY     CLOUDY    73  53  49 S14G24    29.94F
SPENCER        PTSUNNY   69  48  47 S22G31    29.98F
STORM LAKE *   SUNNY     68  50  52 S21G29    30.01S
$$

IAZ055>058-069>071-079>083-090>094-222300-
   SOUTHWEST IOWA

CITY           SKY/WX    TMP DP  RH WIND       PRES   REMARKS
ATLANTIC *     SUNNY     70  52  52 SE13G20   30.04S
AUDUBON *      SUNNY     66  48  52 S9        30.06S
CLARINDA *     SUNNY     72  54  53 SE14G22   30.07S
COUNCIL BLFS * SUNNY     73  57  56 S15G23    29.99F
CRESTON *      SUNNY     64  48  55 SE15G23   30.09F
HARLAN  *      SUNNY     70  54  56 S14       30.06S
LAMONI         LGT RAIN  65  48  54 SE12      30.11F
RED OAK *      SUNNY     72  54  53 S13G21    30.04S
SHENANDOAH *   SUNNY     73  55  53 SE16G23   30.04R
$$

IAZ047>049-059>061-072>074-084-222300-
   CENTRAL IOWA

CITY           SKY/WX    TMP DP  RH WIND       PRES   REMARKS
AMES           PTSUNNY   62  46  55 SE12      30.10F
ANKENY *       MOSUNNY   64  48  55 SE12G20   30.10F
CHARITON *     CLOUDY    63  46  55 SE14      30.12F
DES MOINES     PTSUNNY   65  46  50 S18       30.10F
GRINNELL*      PTSUNNY   61  43  51 SE15      30.15F
KNOXVILLE *    PTSUNNY   63  46  55 SE10      30.12F
MARSHALLTOWN   PTSUNNY   61  42  49 SE13G24   30.13F
PELLA *        PTSUNNY   63  45  51 SE9G16    30.15F
PERRY *          N/A     64  46  52 SE16      30.07F
$$

IAZ004>006-015-016-023>025-035-036-222300-
   NORTH CENTRAL IOWA

CITY           SKY/WX    TMP DP  RH WIND       PRES   REMARKS
ALGONA *       SUNNY     63  46  55 SE21      30.05S
CLARION *      CLOUDY    63  45  51 SE18      30.08F
ESTHERVILLE    PTSUNNY   65  46  50 S23G32    30.00F
FORT DODGE *   MOSUNNY   63  46  55 SE8       30.07S
MASON CITY     PTSUNNY   59  43  55 SE21G30   30.11F
FOREST CITY *  MOSUNNY   59  45  58 SE17G23   30.07F
IOWA FALLS *   PTSUNNY   61  43  51 SE14G21   30.12S
$$

IAZ007>011-017>019-026>030-037>042-050>054-066-222300-
   NORTHEAST IOWA

CITY           SKY/WX    TMP DP  RH WIND       PRES   REMARKS
CEDAR RAPIDS   SUNNY     59  40  49 SE14      30.18F
CHARLES CITY * MOSUNNY   59  41  51 SE13G18   30.14F
CLINTON *      SUNNY     59  36  41 S10       30.25F
DECORAH *      SUNNY     57  37  47 S13G20    30.16F
DUBUQUE        SUNNY     57  38  48 S10       30.21F
MONTICELLO *   SUNNY     59  39  47 SE9G16    30.20F
OELWEIN *      SUNNY     59  37  44 SE14G21   30.18F
WATERLOO       SUNNY     59  41  51 SE17      30.15F
$$

IAZ064-065-067-068-078-222300-
   EAST CENTRAL IOWA

CITY           SKY/WX    TMP DP  RH WIND       PRES   REMARKS
DAVENPORT      SUNNY     60  37  42 SE10      30.22F
IOWA CITY      SUNNY     59  40  49 SE14      30.20F
MT. PLEASANT * SUNNY     61  37  41 SE6       30.19F
MUSCATINE *    SUNNY     63  37  39 S9        30.20F
QUAD CITIES    SUNNY     60  38  43 SE10      30.21F
$$

IAZ062-063-075>077-085>089-095>099-222300-
   SOUTHEAST IOWA

CITY           SKY/WX    TMP DP  RH WIND       PRES   REMARKS
BURLINGTON     SUNNY     61  41  47 SE9       30.19F
FAIRFIELD *    SUNNY     61  41  48 SE13      30.18S
FORT MADISON * SUNNY     63  41  45 SE6       30.20F
KEOKUK *       SUNNY     61  41  48 SE8       30.18F
OSKALOOSA *      N/A     63  41  45 SE10      30.16F
CENTERVILLE *  SUNNY     63  45  51 SE9       30.16F
WASHINGTON *   SUNNY     63  39  42 SE14      30.18F
$$

ABBREVIATIONS USED IN REMARKS
   TC - TEMPERATURES IN CELSIUS
  WCI - WIND CHILL INDEX
   HX - HEAT INDEX
  VSB - VISIBILITY
$$




USA.gov is the U.S. government's official web portal to all federal, state and local government web resources and services.